Weather History for Klawock, AK

Change the Weather History Date:

Sunday, September 9, 2012

  Actual Average Record
Temperature  
Mean Temperature 50 °F -  
Max Temperature 54 °F 58 °F 69 °F (2005)
Min Temperature 46 °F 45 °F 41 °F (2001)
Degree Days  
Heating Degree Days 15    
Moisture  
Dew Point 47 °F    
Average Humidity 90    
Maximum Humidity 100    
Minimum Humidity 77    
Precipitation  
Precipitation 0.67 in - - ()
Sea Level Pressure  
Sea Level Pressure 29.57 in    
Wind  
Wind Speed 6 mph (SSW)    
Max Wind Speed 13 mph    
Max Gust Speed 21 mph    
Visibility 9 miles    
Events Rain    
Averages and records for this station are not official NWS values.
T = Trace of Precipitation, MM = Missing Value Source: NWS Daily Summary

Daily Weather History Graph

Daily Weather History Graph

Search for Another Location

Airport:

Trip Planner

Search our weather history database for the weather conditions in past years. The results will help you decide how hot, cold, wet, or windy it might be!

Date:

Astronomy

Sep. 09, 2012 Rise Set
Actual Time 6:14 AM AKDT 7:23 PM AKDT
Civil Twilight 5:36 AM AKDT 8:01 PM AKDT
Nautical Twilight 4:50 AM AKDT 8:46 PM AKDT
Astronomical Twilight 3:58 AM AKDT 9:37 PM AKDT
Moon 11:57 PM AKDT (9/9) 4:01 PM AKDT (9/9)
Length of Visible Light 14h 24m
Length of Day
13h 09m
Last Quarter, 38% of the Moon is Illuminated
Sep 9
Last Quarter
Sep 15
New
Sep 22
First Quarter
Sep 29
Full
Oct 7
Last Quarter

Hourly Weather History & Observations

Time (AKDT) Temp. Dew Point Humidity Pressure Visibility Wind Dir Wind Speed Gust Speed Precip Events Conditions
12:53 AM 52.0 °F 50.0 °F 93% 29.56 in 10.0 mi Variable 4.6 mph - 0.00 in Rain Light Rain
1:20 AM 51.8 °F 50.0 °F 94% 29.57 in 9.0 mi SSW 12.7 mph 20.7 mph 0.03 in Rain Light Rain
1:34 AM 50.0 °F 48.2 °F 94% 29.57 in 9.0 mi SSW 9.2 mph 18.4 mph 0.04 in Rain Light Rain
1:53 AM 50.0 °F 48.0 °F 93% 29.57 in 10.0 mi South 4.6 mph - 0.06 in Rain Light Rain
2:53 AM 48.9 °F 48.0 °F 97% 29.55 in 10.0 mi SW 5.8 mph - 0.01 in Rain Light Rain
3:53 AM 50.0 °F 46.9 °F 89% 29.53 in 10.0 mi SSE 6.9 mph - 0.00 in   Overcast
4:33 AM 50.0 °F 46.4 °F 87% 29.51 in 10.0 mi SSE 5.8 mph - N/A   Mostly Cloudy
4:53 AM 50.0 °F 46.9 °F 89% 29.51 in 10.0 mi South 3.5 mph - 0.00 in Rain Light Rain
5:07 AM 50.0 °F 46.4 °F 87% 29.50 in 10.0 mi SE 6.9 mph - 0.00 in Rain Light Rain
5:53 AM 48.9 °F 46.9 °F 93% 29.52 in 10.0 mi Variable 3.5 mph - 0.05 in   Overcast
6:53 AM 51.1 °F 46.0 °F 83% 29.51 in 10.0 mi SSE 5.8 mph - N/A   Overcast
7:02 AM 51.8 °F 46.4 °F 82% 29.51 in 10.0 mi Variable 4.6 mph - N/A   Overcast
7:53 AM 52.0 °F 46.0 °F 80% 29.49 in 10.0 mi Variable 3.5 mph - N/A   Overcast
8:53 AM 51.1 °F 46.9 °F 86% 29.48 in 10.0 mi Variable 4.6 mph - 0.01 in Rain Light Rain
9:53 AM 51.1 °F 48.0 °F 89% 29.46 in 10.0 mi Variable 5.8 mph - 0.00 in Rain Light Rain
10:53 AM 51.1 °F 48.0 °F 89% 29.46 in 10.0 mi Variable 6.9 mph - 0.08 in Rain Light Rain
11:53 AM 54.0 °F 46.9 °F 77% 29.47 in 10.0 mi Variable 6.9 mph 17.3 mph 0.03 in   Overcast
12:15 PM 53.6 °F 46.4 °F 77% 29.48 in 10.0 mi SSW 9.2 mph - 0.00 in Rain Light Rain
12:48 PM 51.8 °F 48.2 °F 88% 29.49 in 6.0 mi SSW 8.1 mph - 0.01 in Rain Light Rain
12:53 PM 50.0 °F 48.0 °F 93% 29.50 in 6.0 mi SW 8.1 mph - 0.01 in Rain Light Rain
1:07 PM 48.2 °F 48.2 °F 100% 29.50 in 2.0 mi SSW 6.9 mph - 0.04 in Rain Light Rain
1:53 PM 48.0 °F 46.0 °F 93% 29.53 in 8.0 mi SW 5.8 mph - 0.06 in Rain Light Rain
2:53 PM 50.0 °F 46.9 °F 89% 29.56 in 10.0 mi Variable 4.6 mph - 0.02 in   Mostly Cloudy
3:53 PM 52.0 °F 48.0 °F 86% 29.58 in 10.0 mi SSW 8.1 mph - 0.02 in Rain Light Rain
4:53 PM 50.0 °F 46.9 °F 89% 29.61 in 9.0 mi SW 6.9 mph 16.1 mph 0.00 in Rain Light Rain
5:53 PM 50.0 °F 46.9 °F 89% 29.63 in 10.0 mi SSW 6.9 mph - 0.01 in   Overcast
6:53 PM 50.0 °F 46.9 °F 89% 29.65 in 8.0 mi WNW 8.1 mph - 0.01 in Rain Light Rain
7:07 PM 48.2 °F 44.6 °F 87% 29.64 in 10.0 mi NW 4.6 mph - 0.01 in Rain Light Rain
7:53 PM 48.9 °F 46.0 °F 90% 29.66 in 10.0 mi Calm Calm - 0.02 in   Overcast
8:06 PM 48.2 °F 46.4 °F 93% 29.66 in 1.8 mi Calm Calm - 0.10 in Rain Heavy Rain
8:17 PM 48.2 °F 46.4 °F 93% 29.66 in 2.5 mi Variable 4.6 mph - 0.16 in Rain Rain
8:25 PM 48.2 °F 46.4 °F 93% 29.66 in 8.0 mi Calm Calm - 0.17 in Rain Light Rain
8:53 PM 46.9 °F 46.0 °F 97% 29.68 in 10.0 mi Calm Calm - 0.17 in   Overcast
9:53 PM 48.0 °F 46.0 °F 93% 29.69 in 10.0 mi South 4.6 mph - 0.00 in   Overcast
10:53 PM 48.9 °F 46.0 °F 90% 29.70 in 10.0 mi Variable 4.6 mph - 0.03 in Rain Light Rain
11:53 PM 48.0 °F 46.0 °F 93% 29.72 in 6.0 mi South 3.5 mph - 0.08 in Rain Light Rain